Record,Date/Time,10,Tamb(K),Rh(%),Pres(mb),Tir(K),Rain,Az(deg),El(deg),TkBB(K), Ch  22.234, Ch  23.034, Ch  23.834, Ch  26.234, Ch  30.000, Ch  51.248, Ch  52.280, Ch  53.848, Ch  54.940, Ch  56.660, Ch  57.288, Ch  58.800, Ch 
Record,Date/Time,40,Tamb(K),Rh(%),Pres(mb),Tir(K),Rain
Record,Date/Time,50,Az(deg),El(deg),TkBB(K), Ch  22.000, Ch  22.234, Ch  22.500, Ch  23.000, Ch  23.034, Ch  23.500, Ch  23.834, Ch  24.000, Ch  24.500, Ch  25.000, Ch  25.500, Ch  26.000, Ch  26.234, Ch  26.500, Ch  27.000, Ch  27.500, Ch  28.000, Ch  28.500, Ch  29.000, Ch  29.500, Ch  30.000, Ch  51.248, Ch  51.760, Ch  52.280, Ch  52.804, Ch  53.336, Ch  53.848, Ch  54.400, Ch  54.940, Ch  55.500, Ch  56.020, Ch  56.660, Ch  57.288, Ch  57.964, Ch  58.800, Ch 
Record,Date/Time,80,ID,SNR,Tamb(K),Rh(%),Pres(mb),Tir(K),Rain,Az(deg),El(deg),TkBB(K), Ch  22.234, Ch  23.034, Ch  23.834, Ch  26.234, Ch  30.000, Ch  51.248, Ch  52.280, Ch  53.848, Ch  54.940, Ch  56.660, Ch  57.288, Ch  58.800, Ch 
     1,12/05/18 19:52:15,41, 286.3160,  78.6300,1009.5540, 280.6800,0
     2,12/05/18 19:52:52,51,  0.00, 19.80,297.421,103.873,107.486,108.257,106.036,, 99.504, 95.102, 93.084, 86.010, 78.199, 73.811, 68.814,,, 65.179,, 61.604,, 60.890,, 61.979,222.025,237.384,254.407,268.318,278.096,282.413,284.956,285.274,285.026,285.361,286.076,284.837,286.001,286.852,
     3,12/05/18 19:53:10,51,  0.00, 90.00,297.522, 48.631, 50.985, 51.418, 50.329,, 47.116, 45.569, 45.165, 42.151, 39.439, 38.005, 36.302,,, 35.893,, 34.909,, 36.450,, 37.313,138.202,152.838,172.630,198.036,227.464,254.294,273.360,279.947,282.112,282.734,284.005,281.343,283.664,283.304,
     4,12/05/18 19:53:29,51,  0.00,160.20,297.569,115.419,119.026,119.764,117.857,,111.340,107.908,105.929, 99.646, 93.251, 89.154, 85.134,,, 82.962,, 81.120,, 81.587,, 83.350,233.474,245.726,259.264,271.047,278.914,282.463,284.652,285.185,285.337,286.012,286.145,284.994,285.864,285.628,
     5,12/05/18 19:55:00,41, 286.3040,  79.5100,1009.4260, 279.6500,0
     6,12/05/18 19:55:38,51,  0.00, 19.80,297.812,102.821,106.867,106.702,103.905,, 98.134, 93.102, 91.041, 83.583, 76.190, 71.617, 65.999,,, 61.830,, 58.277,, 57.298,, 58.744,219.305,235.366,252.908,268.662,278.140,282.301,284.515,285.734,285.819,285.603,285.678,284.367,285.751,286.017,
     7,12/05/18 19:55:57,51,  0.00, 90.00,297.830, 45.445, 47.293, 47.063, 45.492,, 42.792, 40.804, 39.811, 37.062, 34.115, 31.756, 29.600,,, 28.835,, 27.373,, 27.791,, 28.780,120.434,136.332,159.344,188.009,220.632,250.857,271.811,280.244,282.252,281.951,283.438,281.097,283.497,283.827,
     8,12/05/18 19:56:15,51,  0.00,160.20,297.841,116.977,120.275,120.527,117.890,,112.745,108.132,106.421,100.105, 94.192, 89.814, 85.583,,, 83.453,, 81.465,, 81.852,, 84.423,233.687,245.560,259.797,271.437,279.315,282.562,284.922,285.843,285.661,285.656,286.250,285.210,285.870,286.392,
     9,12/05/18 19:57:45,41, 286.3040,  79.0600,1009.4680, 280.3500,0
    10,12/05/18 19:58:23,51,  0.00, 19.80,297.999,103.799,107.938,108.123,105.468,, 99.225, 94.543, 92.347, 85.308, 77.776, 73.051, 68.041,,, 64.108,, 60.376,, 59.096,, 60.897,221.773,236.851,254.334,268.795,278.417,282.744,284.662,285.133,285.588,285.545,286.087,284.741,285.633,285.866,
    11,12/05/18 19:58:42,51,  0.00, 90.00,298.053, 50.378, 52.485, 52.601, 51.500,, 48.693, 46.315, 46.123, 43.775, 40.080, 39.092, 37.076,,, 36.549,, 35.676,, 36.488,, 37.808,135.721,150.150,170.853,196.272,226.357,254.044,272.787,279.510,282.491,282.684,283.714,281.278,283.674,283.933,
    12,12/05/18 19:59:01,51,  0.00,160.20,298.071,116.874,121.419,121.297,118.988,,113.342,109.053,107.335,100.910, 94.775, 90.678, 87.184,,, 85.217,, 83.058,, 83.383,, 85.736,236.319,247.582,260.502,271.718,279.853,283.009,284.552,285.099,286.270,286.196,286.140,285.316,286.293,286.387,
    13,12/05/18 20:00:32,41, 286.4020,  79.3400,1009.3740, 280.3800,0
    14,12/05/18 20:01:24,51,  0.00, 19.80,298.180,108.055,111.300,112.062,108.868,,103.271, 98.726, 96.352, 89.661, 82.126, 78.108, 73.030,,, 69.441,, 66.582,, 66.128,, 67.676,225.417,240.495,255.796,269.478,278.834,282.462,284.747,285.325,285.678,285.259,285.986,284.519,285.661,286.827,
    15,12/05/18 20:01:51,51,  0.00, 90.00,298.243, 47.063, 48.645, 49.050, 47.763,, 44.332, 42.086, 41.251, 38.905, 35.354, 33.357, 30.903,,, 30.103,, 28.789,, 28.728,, 29.739,122.894,138.753,160.269,188.495,221.433,250.957,271.698,279.519,282.602,282.271,283.491,280.879,282.979,284.362,
    16,12/05/18 20:02:10,51,  0.00,160.20,298.279,118.558,121.980,122.633,120.085,,114.918,110.748,108.817,103.228, 97.088, 93.628, 89.229,,, 87.995,, 86.064,, 86.823,, 89.724,237.425,249.077,261.387,271.869,279.499,282.576,284.846,285.581,285.848,286.024,286.442,285.523,285.668,286.672,
    17,12/05/18 20:05:23,41, 286.7920,  78.6900,1009.3540, 276.8500,0
    18,12/05/18 20:06:07,51,  0.00, 19.80,298.491,117.026,120.950,121.510,119.040,,113.374,109.784,107.682,101.570, 95.323, 92.075, 86.844,,, 84.777,, 82.462,, 83.200,, 85.250,236.820,248.533,261.057,272.303,279.160,282.593,284.432,285.309,285.963,286.000,285.852,285.072,285.940,286.000,
    19,12/05/18 20:06:37,51,  0.00, 90.00,298.552, 46.574, 48.718, 48.739, 47.255,, 44.385, 42.535, 41.698, 38.848, 35.999, 34.108, 31.502,,, 30.818,, 29.522,, 29.839,, 30.987,125.487,140.757,162.493,190.825,222.237,251.799,272.201,279.555,282.652,282.291,283.466,281.085,283.823,284.059,
    20,12/05/18 20:06:59,51,  0.00,160.20,298.607,124.642,128.585,128.988,126.909,,121.317,117.978,115.827,110.208,105.141,101.478, 97.918,,, 96.795,, 95.549,, 96.627,, 99.291,243.812,253.600,264.078,273.541,279.431,282.728,284.606,285.024,286.040,285.940,286.292,285.061,286.243,286.202,
    21,12/05/18 20:09:49,41, 286.8350,  77.8300,1009.3700, 280.5700,0
    22,12/05/18 20:10:35,51,  0.00, 19.80,298.812,120.772,124.543,125.172,122.886,,117.764,113.834,111.771,105.931, 99.586, 96.077, 91.900,,, 89.526,, 87.717,, 88.362,, 91.313,238.583,250.509,262.288,272.856,279.251,282.810,284.762,285.415,285.575,285.025,285.694,285.511,286.693,286.632,
    23,12/05/18 20:10:58,51,  0.00, 90.00,298.834, 47.175, 48.773, 49.252, 47.401,, 44.506, 42.441, 41.655, 39.009, 36.105, 34.013, 31.675,,, 30.706,, 29.062,, 29.701,, 30.533,125.618,141.156,163.013,190.882,222.166,251.727,272.131,279.315,281.619,281.929,283.164,280.529,283.358,283.774,
    24,12/05/18 20:11:24,51,  0.00,160.20,298.899,134.946,138.681,139.292,137.898,,133.145,129.944,128.418,123.238,118.927,115.725,113.087,,,112.595,,112.864,,115.088,,118.446,252.938,260.793,268.414,275.854,280.377,282.941,284.462,285.412,285.629,285.559,286.719,285.560,286.248,286.569,
    25,12/05/18 20:14:13,41, 286.7920,  77.8700,1009.3140, 280.0300,0
    26,12/05/18 20:15:03,51,  0.00, 19.80,299.040,124.099,127.529,129.090,126.339,,121.588,117.558,115.431,109.774,103.702,100.580, 96.308,,, 95.044,, 93.358,, 94.559,, 97.707,241.970,252.102,263.433,273.236,279.522,282.880,284.770,285.565,286.085,285.770,286.388,285.850,286.598,287.045,
    27,12/05/18 20:15:31,51,  0.00, 90.00,299.097, 47.798, 49.219, 50.017, 48.516,, 45.797, 43.535, 42.581, 40.010, 36.363, 34.484, 32.767,,, 31.890,, 30.485,, 31.280,, 31.741,127.851,142.789,164.035,192.137,223.045,252.214,272.240,279.368,282.643,281.937,283.268,281.428,284.222,284.142,
    28,12/05/18 20:15:55,51,  0.00,160.20,299.090,137.642,140.613,141.834,139.885,,135.464,131.626,130.195,125.312,120.177,117.651,114.556,,,114.336,,114.139,,116.343,,119.868,251.840,259.411,267.770,275.457,280.829,283.051,284.284,285.356,285.846,286.078,286.146,285.960,287.002,286.210,
    29,12/05/18 20:18:59,41, 286.8470,  77.7800,1009.2540, 267.7000,0
    30,12/05/18 20:19:46,51,  0.00, 19.80,299.200,131.217,134.808,135.905,133.800,,129.731,126.427,124.781,119.826,114.567,111.911,109.164,,,108.684,,107.793,,110.361,,113.670,250.086,258.199,267.478,275.392,280.008,283.418,285.045,285.580,286.214,286.513,287.031,286.398,286.790,286.405,
    31,12/05/18 20:20:09,51,  0.00, 90.00,299.219, 45.265, 46.868, 46.827, 44.897,, 42.034, 39.778, 39.325, 36.245, 32.854, 30.835, 28.691,,, 27.283,, 25.588,, 25.996,, 26.248,118.328,134.025,156.839,185.640,218.463,249.792,271.052,279.637,282.207,281.695,283.685,281.584,283.789,283.670,
    32,12/05/18 20:20:34,51,  0.00,160.20,299.230,146.545,149.728,150.831,149.338,,145.429,142.455,141.395,137.364,133.460,131.360,129.088,,,130.051,,130.958,,134.495,,138.505,261.071,265.948,272.093,277.080,280.432,283.010,284.401,285.526,286.037,285.881,287.005,286.454,287.059,286.603,
    33,12/05/18 20:23:19,41, 286.8740,  76.7300,1009.2360, 279.9400,0
    34,12/05/18 20:24:03,51,  0.00, 19.80,299.269,123.506,126.746,127.694,125.244,,120.096,116.199,114.095,108.309,102.309, 99.573, 94.984,,, 93.767,, 92.340,, 93.208,, 96.109,243.584,253.639,264.441,274.244,280.183,283.144,284.888,285.291,286.331,285.978,286.701,285.684,286.779,287.111,
    35,12/05/18 20:24:24,51,  0.00, 90.00,299.328, 50.007, 51.900, 52.207, 51.139,, 47.675, 45.712, 44.705, 42.081, 39.228, 37.696, 35.489,,, 35.224,, 34.037,, 34.757,, 35.717,133.575,148.311,168.777,195.241,225.606,253.801,272.913,280.255,282.355,282.406,283.831,281.430,283.743,284.209,
    36,12/05/18 20:24:44,51,  0.00,160.20,299.352,143.654,147.379,148.090,146.354,,141.716,138.873,137.095,132.371,128.143,125.755,123.100,,,123.851,,124.170,,126.101,,130.193,255.931,262.373,269.527,275.850,280.598,282.928,284.232,285.179,286.127,286.114,286.715,286.069,286.824,287.391,
    37,12/05/18 20:27:39,41, 286.8350,  73.3700,1009.1460, 280.2300,0
    38,12/05/18 20:28:24,51,  0.00, 19.80,299.342,119.747,123.757,124.237,121.795,,116.269,112.301,109.893,104.454, 97.849, 94.484, 90.056,,, 87.641,, 85.958,, 86.783,, 89.483,239.756,250.644,262.259,272.846,279.337,282.401,284.609,285.625,286.007,285.402,286.329,285.618,286.665,287.146,
    39,12/05/18 20:28:50,51,  0.00, 90.00,299.360, 65.573, 67.818, 68.214, 67.266,, 65.067, 64.016, 62.786, 61.274, 59.161, 58.029, 56.836,,, 57.460,, 58.022,, 60.817,, 63.067,174.674,185.806,200.663,219.832,241.913,261.585,275.670,280.532,282.917,282.873,283.804,282.258,284.050,284.382,
    40,12/05/18 20:29:10,51,  0.00,160.20,299.368,132.489,136.186,136.370,133.813,,129.002,124.807,122.491,116.990,111.552,107.945,104.349,,,102.906,,101.381,,103.251,,105.769,244.865,253.939,264.231,273.071,279.536,282.390,284.354,285.163,285.842,285.505,286.191,285.902,286.773,287.869,
    41,12/05/18 20:32:03,41, 286.8040,  72.7100,1009.1340, 280.2000,0
    42,12/05/18 20:32:50,51,  0.00, 19.80,299.344,113.911,117.544,118.196,115.435,,109.614,105.090,102.641, 96.358, 89.138, 85.567, 79.872,,, 77.069,, 74.207,, 73.939,, 76.188,231.407,244.559,258.105,271.003,278.493,282.470,284.782,285.445,285.661,285.007,286.286,285.396,286.344,286.619,
    43,12/05/18 20:33:15,51,  0.00, 90.00,299.357, 62.953, 64.582, 65.052, 64.376,, 62.172, 60.298, 59.730, 58.030, 55.042, 54.783, 52.835,,, 53.216,, 53.686,, 55.222,, 57.879,165.100,176.967,193.308,214.179,237.626,260.106,274.427,280.509,282.829,281.986,283.365,281.466,284.250,283.931,
    44,12/05/18 20:33:39,51,  0.00,160.20,299.371,125.030,128.607,128.833,126.349,,120.616,116.230,113.764,107.629,100.794, 97.313, 92.374,,, 90.890,, 88.464,, 89.179,, 91.651,234.898,246.622,259.320,270.830,278.047,282.469,283.999,285.246,285.412,285.142,286.010,285.769,286.582,286.962,
    45,12/05/18 20:36:28,41, 286.6790,  73.9900,1009.1060, 280.2400,0
    46,12/05/18 20:37:15,51,  0.00, 19.80,299.369,114.973,118.627,119.173,116.141,,110.714,106.382,104.042, 97.361, 90.702, 86.671, 81.721,,, 78.875,, 76.329,, 76.369,, 78.411,232.166,244.789,258.760,270.427,278.857,282.423,284.865,285.081,285.942,285.031,285.879,285.567,285.971,286.590,
    47,12/05/18 20:37:38,51,  0.00, 90.00,299.374, 57.651, 59.588, 59.690, 58.755,, 55.772, 54.249, 53.313, 51.138, 48.159, 46.695, 44.845,,, 44.883,, 44.354,, 45.853,, 47.599,150.925,164.223,182.362,205.144,232.642,256.551,273.702,280.086,282.289,281.899,283.550,281.825,283.575,284.539,
    48,12/05/18 20:37:59,51,  0.00,160.20,299.396,127.502,131.295,131.761,129.007,,123.256,119.380,117.192,110.766,105.050,101.088, 97.235,,, 95.357,, 94.342,, 94.799,, 97.470,241.896,252.216,263.388,272.546,279.684,282.673,284.745,285.575,285.820,285.381,286.427,285.630,286.398,286.589,
    49,12/05/18 20:40:55,41, 286.5700,  73.6700,1008.9560, 280.3200,0
    50,12/05/18 20:41:37,51,  0.00, 19.80,299.363,115.063,118.938,119.409,116.444,,111.051,106.778,104.361, 98.134, 90.518, 86.919, 81.955,,, 79.334,, 76.634,, 76.098,, 78.952,231.858,244.769,258.596,270.740,278.715,282.464,284.351,285.249,286.286,285.372,286.009,285.379,286.219,286.302,
    51,12/05/18 20:41:56,51,  0.00, 90.00,299.355, 59.959, 61.804, 62.174, 61.316,, 58.699, 57.038, 55.863, 53.884, 50.575, 49.645, 47.813,,, 47.758,, 47.752,, 49.331,, 51.117,153.476,166.388,184.690,207.394,233.253,257.118,273.478,279.920,282.452,281.894,283.486,281.946,284.065,284.299,
    52,12/05/18 20:42:19,51,  0.00,160.20,299.375,125.191,128.830,129.132,126.150,,120.053,115.807,113.402,107.480,100.556, 96.818, 92.247,,, 90.222,, 87.840,, 88.054,, 90.190,235.886,247.607,260.384,271.147,278.795,282.692,284.375,285.027,286.300,285.061,285.976,284.856,285.993,285.911,
    53,12/05/18 20:45:07,41, 286.5540,  74.7100,1009.1020, 280.0900,0
    54,12/05/18 20:45:56,51,  0.00, 19.80,299.405,119.239,122.713,123.559,120.758,,115.538,111.056,109.020,102.756, 96.114, 92.669, 87.422,,, 85.415,, 82.715,, 83.494,, 85.983,236.126,248.258,260.861,271.735,279.382,282.246,283.892,285.091,285.907,285.100,285.893,285.625,285.839,285.575,
    55,12/05/18 20:46:17,51,  0.00, 90.00,299.421, 54.715, 56.304, 56.953, 55.563,, 52.746, 51.058, 49.968, 47.399, 44.447, 42.841, 40.395,,, 39.524,, 38.886,, 40.291,, 41.424,141.783,155.724,174.779,199.634,228.532,254.712,272.599,279.944,282.493,281.602,283.123,281.010,283.160,283.695,
    56,12/05/18 20:46:40,51,  0.00,160.20,299.416,129.693,132.832,133.703,131.738,,126.053,121.829,119.603,113.527,108.402,104.553,100.293,,, 99.066,, 97.854,, 99.301,,102.163,243.924,253.625,264.005,272.922,279.542,282.467,283.941,285.061,285.468,285.244,285.634,285.071,286.279,286.386,
    57,12/05/18 20:49:25,41, 286.5540,  75.4400,1009.0180, 280.3200,0
    58,12/05/18 20:50:16,51,  0.00, 19.80,299.425,118.608,122.039,123.056,120.123,,114.342,110.148,107.875,101.622, 94.539, 90.296, 85.930,,, 82.369,, 80.575,, 80.402,, 82.895,236.437,248.052,260.882,272.143,279.025,282.493,284.073,285.122,285.976,285.569,285.850,284.776,286.112,286.427,
    59,12/05/18 20:50:42,51,  0.00, 90.00,299.437, 54.725, 56.492, 57.066, 55.727,, 52.569, 50.397, 50.091, 47.438, 44.450, 42.187, 40.561,,, 39.587,, 39.387,, 40.249,, 41.687,142.169,155.826,175.425,200.367,228.561,255.322,272.910,280.009,282.309,282.244,283.175,280.680,283.308,284.295,
    60,12/05/18 20:51:03,51,  0.00,160.20,299.466,132.277,136.090,137.168,134.544,,129.152,125.283,123.340,117.405,111.748,108.015,104.612,,,103.337,,102.567,,103.973,,107.155,246.764,255.374,265.599,274.141,279.598,282.646,283.955,284.862,285.775,285.740,285.955,284.714,285.830,286.567,
    61,12/05/18 20:53:56,41, 286.4720,  76.3500,1009.0060, 280.6700,0
    62,12/05/18 20:54:48,51,  0.00, 19.80,299.399,114.000,118.117,118.681,115.465,,109.405,104.799,102.482, 95.994, 88.668, 84.151, 79.212,,, 75.867,, 72.887,, 72.518,, 73.853,230.067,242.940,257.458,270.691,278.705,282.331,284.196,285.166,285.392,285.648,285.767,284.807,286.028,286.330,
    63,12/05/18 20:55:12,51,  0.00, 90.00,299.375, 60.125, 62.942, 62.970, 61.528,, 59.266, 56.954, 56.558, 54.859, 52.159, 50.717, 49.469,,, 49.077,, 48.593,, 50.522,, 52.257,156.965,169.884,187.174,209.770,235.135,258.457,274.410,280.546,282.376,282.702,283.309,281.561,283.537,284.687,
    64,12/05/18 20:55:36,51,  0.00,160.20,299.426,138.330,142.114,142.732,140.424,,135.662,132.153,130.286,125.195,120.166,117.102,113.875,,,113.146,,112.882,,114.772,,118.744,254.058,261.225,269.234,276.292,280.905,282.799,284.412,285.015,285.518,285.596,285.964,285.853,286.214,286.924,
    65,12/05/18 20:58:24,41, 286.1360,  77.4700,1008.9000, 281.8700,1
    66,12/05/18 20:59:10,51,  0.00, 19.80,299.154,115.599,119.306,120.005,116.642,,111.223,106.514,104.401, 97.538, 90.574, 86.768, 80.902,,, 78.103,, 75.150,, 74.898,, 76.999,232.363,245.463,259.306,271.130,279.055,282.292,284.036,285.114,285.666,284.299,285.641,284.226,285.163,285.738,
    67,12/05/18 20:59:34,51,  0.00, 90.00,299.100, 91.472, 93.534, 94.489, 93.603,, 93.029, 91.947, 91.577, 90.260, 88.588, 89.456, 88.384,,, 89.070,, 89.730,, 93.159,, 96.572,192.993,203.040,216.049,231.944,250.073,266.619,276.422,282.123,283.470,283.333,284.593,282.887,284.496,284.476,
    68,12/05/18 20:59:54,51,  0.00,160.20,299.101,154.484,158.497,159.053,156.971,,153.760,150.525,149.660,145.360,141.230,139.536,136.894,,,136.518,,137.030,,140.036,,144.642,260.573,266.636,273.109,278.201,282.300,284.303,283.889,285.586,286.016,286.125,286.974,285.656,286.682,286.790,
    69,12/05/18 21:01:32,41, 285.9130,  80.0200,1008.9040, 280.9900,1
    70,12/05/18 21:02:17,51,  0.00, 19.80,298.833,113.678,117.465,118.099,114.695,,108.512,103.476,101.337, 94.873, 87.532, 82.828, 77.857,,, 74.170,, 71.162,, 70.022,, 71.963,228.660,242.164,257.439,270.309,278.308,281.972,283.825,284.485,285.376,284.703,284.970,284.332,285.458,286.185,
    71,12/05/18 21:02:42,51,  0.00, 90.00,298.822, 90.388, 92.893, 93.523, 92.731,, 91.537, 90.060, 89.305, 88.503, 86.715, 87.423, 86.029,,, 86.660,, 87.334,, 90.041,, 94.003,186.914,196.838,210.589,228.283,247.370,264.905,275.662,282.220,283.415,282.440,284.198,282.733,284.045,285.247,
    72,12/05/18 21:03:03,51,  0.00,160.20,298.849,166.192,170.123,170.687,169.826,,166.741,164.636,163.588,160.761,157.872,157.094,155.844,,,157.003,,159.289,,163.019,,168.842,271.048,274.347,278.208,280.877,282.971,284.070,284.386,285.735,285.866,285.651,286.401,286.187,286.471,287.221,
    73,12/05/18 21:04:47,41, 285.8160,  81.5300,1008.9080, 281.4200,1
    74,12/05/18 21:05:29,51,  0.00, 19.80,298.747,125.156,128.832,129.713,127.579,,122.351,118.321,116.754,110.512,104.829,101.357, 97.174,,, 95.226,, 93.680,, 95.113,, 98.389,246.505,255.677,265.597,274.376,280.087,282.765,283.562,285.017,284.752,284.986,285.232,284.401,285.612,285.787,
    75,12/05/18 21:05:49,51,  0.00, 90.00,298.755,109.388,111.571,113.297,112.625,,112.509,111.931,112.260,111.501,110.923,112.221,112.796,,,114.147,,115.896,,120.508,,124.413,214.396,222.257,232.242,245.309,259.082,271.337,278.133,283.243,283.375,284.817,284.611,282.988,284.912,284.981,
    76,12/05/18 21:06:13,51,  0.00,160.20,298.770,178.491,182.328,183.279,183.081,,180.269,178.086,178.223,175.572,173.282,173.131,171.930,,,173.032,,174.874,,178.948,,184.140,273.181,275.876,278.731,281.875,283.532,285.084,284.323,286.767,286.106,286.693,286.666,285.863,286.364,286.959,
    77,12/05/18 21:07:48,41, 285.4370,  82.5100,1008.8580, 281.9600,1
    78,12/05/18 21:08:33,51,  0.00, 19.80,298.505,127.147,130.266,131.115,128.605,,123.078,118.484,116.981,110.541,104.573,101.220, 96.850,,, 94.600,, 92.666,, 93.447,, 95.972,242.758,252.633,263.851,273.615,279.735,282.398,284.264,283.936,285.159,284.742,285.379,284.944,285.980,285.689,
    79,12/05/18 21:08:58,51,  0.00, 90.00,298.513,143.319,145.347,146.831,146.730,,145.385,142.946,144.789,142.119,141.193,142.708,142.079,,,141.434,,141.586,,145.084,,148.256,219.162,226.580,235.472,247.583,260.757,272.922,279.214,283.092,284.300,284.599,285.214,284.448,285.731,285.338,
    80,12/05/18 21:09:21,51,  0.00,160.20,298.470,183.607,186.753,187.686,186.693,,183.828,180.365,180.247,177.193,173.707,173.358,171.211,,,172.032,,172.044,,175.498,,179.487,268.647,272.320,276.456,279.986,282.715,284.592,283.837,285.234,286.355,285.899,286.710,286.196,286.689,286.485,
    81,12/05/18 21:11:01,41, 285.1590,  83.6700,1008.8220, 282.1800,1
    82,12/05/18 21:11:47,51,  0.00, 19.80,298.180,122.482,125.983,127.135,123.597,,117.929,113.122,111.218,104.191, 98.377, 93.828, 89.331,,, 86.243,, 83.879,, 83.353,, 85.864,236.975,248.522,261.617,272.119,278.954,282.272,283.762,284.805,285.633,285.485,285.770,284.115,285.817,285.927,
    83,12/05/18 21:12:16,51,  0.00, 90.00,298.205,125.476,127.408,127.934,127.133,,125.892,124.819,125.211,121.936,120.317,121.516,119.599,,,118.938,,119.191,,122.211,,125.158,199.357,207.306,220.002,235.248,252.073,268.263,277.548,282.748,283.977,284.028,284.399,283.369,285.312,284.698,
    84,12/05/18 21:12:40,51,  0.00,160.20,298.194,175.036,178.495,179.185,177.970,,175.561,172.373,171.124,168.067,164.394,163.065,160.733,,,161.289,,161.172,,163.471,,167.015,263.910,268.677,274.474,279.043,282.230,284.185,284.017,285.658,286.727,285.963,286.655,286.038,286.493,286.344,
    85,12/05/18 21:14:21,41, 285.2570,  84.5900,1008.7620, 281.9700,1
    86,12/05/18 21:15:03,51,  0.00, 19.80,298.030,125.312,128.790,129.355,126.863,,120.992,116.524,114.404,107.871,101.561, 97.346, 92.884,,, 90.086,, 88.366,, 88.715,, 91.144,240.985,251.709,263.556,272.951,279.219,282.556,284.297,284.816,284.926,284.568,285.109,284.932,285.927,285.319,
    87,12/05/18 21:15:28,51,  0.00, 90.00,298.041,121.086,122.757,122.928,122.514,,121.136,119.531,119.915,116.818,114.902,115.637,113.649,,,112.487,,112.513,,116.152,,118.743,190.826,199.808,213.392,229.269,248.758,266.562,277.177,282.418,283.557,283.627,283.836,282.847,285.149,284.266,
    88,12/05/18 21:15:52,51,  0.00,160.20,298.005,172.144,175.195,175.745,174.244,,171.271,167.943,166.747,163.740,159.024,157.363,154.539,,,154.198,,153.595,,156.244,,159.362,259.750,265.433,272.495,277.770,281.517,283.747,284.118,285.567,286.134,285.512,286.298,285.636,285.946,285.220,
    89,12/05/18 21:17:38,41, 285.2450,  84.7600,1008.7480, 281.3900,1
    90,12/05/18 21:18:25,51,  0.00, 19.80,297.935,128.836,132.532,133.183,130.888,,125.738,121.114,119.070,112.694,106.668,103.191, 98.934,,, 96.648,, 95.516,, 96.080,, 99.222,246.826,255.476,265.507,273.950,279.871,282.792,283.553,284.598,284.863,284.987,284.956,284.552,285.688,285.271,
    91,12/05/18 21:18:48,51,  0.00, 90.00,297.966,119.234,121.507,122.291,121.419,,119.803,118.220,118.551,115.364,113.527,114.815,112.482,,,111.775,,111.631,,114.899,,118.520,190.496,199.737,213.046,230.357,249.466,266.675,276.630,282.386,283.339,283.740,284.232,283.385,284.789,284.186,
    92,12/05/18 21:19:09,51,  0.00,160.20,297.970,174.067,177.520,178.301,177.456,,174.542,171.273,170.366,167.400,163.820,162.097,160.399,,,160.316,,161.041,,163.624,,167.627,266.158,269.740,275.019,279.422,282.372,283.845,284.247,285.358,285.851,286.110,286.020,285.806,286.203,285.908,
    93,12/05/18 21:20:43,41, 285.3550,  84.8300,1008.6840, 281.5300,1
    94,12/05/18 21:21:24,51,  0.00, 19.80,297.928,117.827,121.681,122.214,118.641,,112.123,107.642,104.798, 97.253, 90.275, 85.332, 80.120,,, 76.155,, 72.713,, 72.308,, 74.243,228.881,242.644,257.554,270.265,278.604,281.894,283.867,284.367,284.603,283.948,285.259,284.406,285.231,286.213,
    95,12/05/18 21:21:43,51,  0.00, 90.00,297.956,119.464,120.865,121.346,120.340,,118.720,117.766,118.029,115.067,113.065,113.940,112.006,,,111.178,,110.788,,114.178,,117.055,187.402,196.974,210.560,228.543,247.976,265.538,276.360,282.218,283.662,283.174,284.623,283.127,284.560,284.991,
    96,12/05/18 21:22:08,51,  0.00,160.20,297.995,172.288,175.374,176.402,175.092,,171.757,168.862,167.892,164.880,161.111,159.211,157.065,,,156.920,,157.183,,159.684,,163.182,264.936,268.950,274.260,278.575,281.854,283.639,284.617,285.129,286.016,285.282,285.781,285.828,285.868,286.655,
    97,12/05/18 21:23:47,41, 285.2570,  84.6300,1008.6640, 281.0400,1
    98,12/05/18 21:24:39,51,  0.00, 19.80,297.923,122.699,126.355,127.473,124.629,,118.723,113.790,112.020,105.017, 97.737, 94.154, 89.029,,, 86.312,, 83.824,, 84.190,, 86.405,235.101,247.341,260.190,271.793,278.721,282.331,284.230,284.829,284.913,284.513,285.378,284.287,285.583,285.426,